カタログに戻る

STARLINK-5811

運用中通信VLEO
NORAD 55787·PAYLOAD·🇺🇸 United States

打ち上げ Mar 3, 2023 から Vandenberg Space Force Base

Loading…

次のパス (今後24時間)

TLE

最新Source: CelesTrak SupGP

元期: Sep 14, 2026, 20:59 UTC

1 55787C 23028AY  26257.87479167  .00027438  00000+0  22999-2 0  2571
2 55787  70.0005  87.5837 0002874 274.0661 353.6467 14.98309912    12

AllMySatでSTARLINK-5811をリアルタイム追跡

Download on the App Store